sat.trackr.live / text

‹ back to catalog

LEO EXPRESS 3

NORAD 66687 · 2025-276X

PAYLOAD ACTIVE UNKNOWN

§ Identity

Operator
Country
US
Launch date
2025-11-28
Launch site
AFWTR
Launch vehicle
Mass (kg)
RCS (m²)

External: N2YO · Heavens-Above · Gunter

§ Orbital elements

Epoch: 2026-09-20T21:46:02.954496Z

Period
94.57 min
Inclination
97.4181°
Eccentricity
0.0004586
Mean motion
15.22745245 rev/d
Perigee alt
494.4 km
Apogee alt
500.7 km
Semi-major
6,875.7 km
B*
3.0521e-4
RAAN
336.3188°
Arg perigee
153.8020°
Mean anomaly
206.3450°
Rev number
4,498

§ Raw data

LEO EXPRESS 31 66687U 25276X   26263.90697864  .00007056  00000+0  30521-3 0  99942 66687  97.4181 336.3188 0004586 153.8020 206.3450 15.22745245 44981

JSON: /api/v1/satellites/66687 · /tle

For live sub-satellite position, see the globe view (requires WebGL).

§ Visibility from observer

Set your observer location to see the next 7 days of passes ≥ 10°. The values pass through the URL so the page stays shareable.

No JS? Fill the form by hand. The geolocation button needs JavaScript.